www.pogodaiklimat.ru
ПОГОДА в Цитеко
Время
(UTC), дата
18 28.11
21 28.11
00 29.11
03 29.11
06 29.11
09 29.11
12 29.11
15 29.11
18 29.11
21 29.11
00 30.11
03 30.11
06 30.11
09 30.11
12 30.11
15 30.11
18 30.11
21 30.11
00 1.12
03 1.12
06 1.12
09 1.12
12 1.12
15 1.12
18 1.12
21 1.12
00 2.12
03 2.12
06 2.12
09 2.12
12 2.12
15 2.12
18 2.12
21 2.12
00 3.12
03 3.12
06 3.12
09 3.12
12 3.12
15 3.12
18 3.12
21 3.12
00 4.12
03 4.12
06 4.12
09 4.12
12 4.12
15 4.12
18 4.12
21 4.12
00 5.12
03 5.12
06 5.12
09 5.12
12 5.12
15 5.12
Ветер
(напр.,м/с)
Видим. Явления Облачность Т
(С)
Тd
(С)
f
(%)
Тe
(С)
Тes
(С)
Комфортность P
(гПа)
Po
(гПа)
Тmin
(С)
Tmax
(С)
R
(мм)
R24
(мм)
S
(см)
штиль 0 6000 м 9/8 600 м
[Sc Ci fib]
+20.8 +19.6 93 +25 +25 комфорт 1007.9 902.7
штиль 0 6000 м 10/9 600 м
[Sc Ci fib]
+20.0 +19.3 96 +23 +23 комфорт 1007.8 902.6
штиль 0 7000 м 9/3 600 м
[Cu hum As trans Ci fib]
+20.6 +19.1 91 +24 +26 комфорт 1009.0 903.7 +20.0
ЮЗ 1 6000 м 10/8 600 м
[Cu med, cong As trans Ci fib]
+24.2 +21.4 84 +31 +33 очень
душно
1009.6 904.2
СЗ 2 8000 м осадки на расстоянии 10/8 600 м
[Cu med, cong As trans Ci fib]
+25.6 +21.6 79 +33 +35 очень
душно
1008.0 902.8
З 2 5000 м гроза без осадков 9/9 600 м
[Cb cap As trans Ci fib]
+25.0 +22.2 84 +32 +33 очень
душно
1006.6 901.5
СЗ 2 1000 м в посл. час туман {гроза, дождь} 10/9 600 м
[Cb cap As op]
+22.8 +22.0 95 +31 +31 очень
душно
1008.1 902.8 +26.5 11
штиль 0 4000 м в посл. час гроза {дождь} 10/9 600 м
[Cb cap As trans]
+21.7 +21.0 96 +28 +28 душно 1009.4 904.0 2
штиль 0 5000 м мгла 10/8 600 м
[St As trans]
+21.6 +21.0 96 +27 +27 душно 1008.6 903.3 2
штиль 0 5000 м мгла 10/8 600 м
[Sc As trans]
+21.2 +20.5 96 +26 +26 душно 1008.6 902.7
штиль 0 7000 м 9/6 600 м
[Cu med, cong As trans Ci fib]
+20.9 +20.5 98 +26 +26 душно 1009.8 904.4 +20.2 13
СЗ 2 7000 м осадки на расстоянии 10/8 600 м
[Cu med, cong As trans Ci fib]
+24.0 +21.1 84 +30 +32 очень
душно
1010.5 905.0
штиль 0 7000 м осадки на расстоянии 10/8 600 м
[Cu med, cong As trans Ci fib]
+24.6 +21.5 83 +31 +34 очень
душно
1008.3 903.0
штиль 0 7000 м гроза без осадков 10/9 600 м
[Cb cap As trans]
+22.5 +21.2 92 +30 +30 очень
душно
1006.9 901.8 9
штиль 0 6000 м в посл. час гроза {дождь} 10/8 600 м
[Cb cap As trans]
+21.9 +20.9 94 +28 +28 душно 1008.5 903.2 +25.6 9
штиль 0 5000 м слаб. дождь 10/8 600 м
[Sc As op Ci ing]
+20.8 +20.2 96 +25 +25 комфорт 1009.7 904.3 0.0
штиль 0 6000 м {дождь} 10/6 600 м
[Sc Ac As Ci fib]
+20.2 +19.6 96 +24 +24 комфорт 1008.4 903.1 0.0
штиль 0 6000 м 8/5 600 м
[Sc As trans Ci fib]
+19.8 +19.2 96 +23 +23 комфорт 1008.0 902.7
штиль 0 9000 м 6/3 600 м
[Sc As trans Ci fib]
+20.1 +19.4 96 +23 +25 комфорт 1009.0 903.7 +19.6 9
З 2 9000 м 9/6 600 м
[Cu med, cong As trans Ci fib]
+24.8 +21.4 81 +31 +35 очень
душно
1009.5 904.1
штиль 0 8000 м осадки на расстоянии 10/8 600 м
[Cu med, cong As trans Ci fib]
+24.4 +22.2 88 +32 +34 очень
душно
1008.0 902.8 1
С 1 8000 м осадки на расстоянии 10/9 600 м
[Cu med, cong As trans]
+25.0 +21.0 78 +31 +32 очень
душно
1006.3 901.2
штиль 0 3000 м гроза, ливневой дождь 10/10 600 м
[Cb cap]
+21.8 +19.5 87 +27 +27 душно 1008.2 902.9 +25.8 10
штиль 0 2000 м гроза, ливневой дождь 10/9 600 м
[Cb cap As op]
+21.4 +20.5 95 +27 +27 душно 1009.2 903.8 20
штиль 0 6000 м в посл. час гроза {дождь} 10/8 600 м
[Cb cap Ac As Ci ing]
+19.8 +18.9 95 +23 +23 комфорт 1008.5 903.2 6
штиль 0 6000 м 9/6 600 м
[Sc Ac As Ci fib]
+19.0 +17.8 93 +20 +20 тепло 1007.9 902.7
штиль 0 8000 м 9/4 600 м
[Sc Ac As Ci fib]
+20.1 +18.9 93 +23 +24 комфорт 1009.3 903.9 +19.0 37
ЮЗ 1 9000 м 9/4 600 м
[Cu med, cong As trans Ci fib]
+23.8 +21.2 85 +30 +37 очень
душно
1009.8 904.3
С 2 9000 м 9/6 600 м
[Cu med, cong As trans Ci fib]
+26.0 +21.5 76 +33 +38 очень
душно
1008.1 902.8
штиль 0 8000 м осадки на расстоянии 10/8 600 м
[Cu med, cong As trans]
+23.1 +21.2 89 +31 +31 очень
душно
1006.9 901.7
штиль 0 7000 м 10/8 600 м
[Cb cap As trans]
+22.5 +20.9 91 +29 +29 очень
душно
1008.4 903.1 +26.7
штиль 0 6000 м 10/8 600 м
[Sc As trans]
+21.2 +19.7 91 +26 +26 душно 1009.7 904.3
штиль 0 6000 м 9/8 600 м
[Sc Ci fib]
+20.5 +18.6 89 +24 +24 комфорт 1008.4 903.1
штиль 0 6000 м 9/8 600 м
[Sc Ci fib]
+20.2 +19.0 93 +24 +24 комфорт 1007.7 902.4
штиль 0 8000 м 8/4 600 м
[Sc diur, vesp Ac trans Ci fib]
+20.1 +18.1 88 +23 +24 комфорт 1009.6 904.2 +19.6
штиль 0 10 км 8/5 600 м
[Cu med, cong As trans Ci fib]
+25.1 +20.4 75 +31 +39 очень
душно
1009.8 904.3
штиль 0 10 км в посл. час дождь 10/8 600 м
[Cu med, cong As trans Ci fib]
+25.2 +20.6 76 +31 +34 очень
душно
1008.3 903.0 0.0
З 2 5000 м осадки на расстоянии 10/9 600 м
[Cu med, cong As trans]
+24.4 +20.4 78 +30 +30 очень
душно
1007.1 902.0
штиль 0 3000 м в посл. час дождь 10/9 600 м
[Cu med, cong As trans]
+22.6 +21.2 92 +30 +30 очень
душно
1008.8 903.5 +26.1 0.2
штиль 0 5000 м мгла {дождь} 10/8 600 м
[Cu med, cong As trans]
+21.8 +20.6 93 +28 +28 душно 1010.4 904.9 0.3
штиль 0 5000 м мгла 10/8 600 м
[Sc As trans]
+20.6 +19.1 91 +24 +24 комфорт 1009.1 903.8 0.3
штиль 0 6000 м 9/6 600 м
[Sc As trans Ci fib]
+19.6 +18.1 91 +22 +22 комфорт 1008.0 902.8
штиль 0 8000 м 5/3 600 м
[Sc diur, vesp As trans Ci fib]
+20.4 +18.1 87 +24 +25 комфорт 1009.9 904.4 +19.4 0.5
З 2 10 км 8/5 600 м
[Cu med, cong As trans Ci fib]
+24.8 +19.6 73 +30 +36 душно 1010.4 904.9
СЗ 2 9000 м 9/6 600 м
[Cu med, cong As trans Ci fib]
+26.0 +21.2 75 +33 +38 очень
душно
1008.5 903.2
штиль 0 8000 м мгла {дождь} 10/8 600 м
[Cu med, cong As trans Ci sp]
+25.2 +21.2 79 +32 +33 очень
душно
1007.1 902.0 0.0
штиль 0 7000 м гроза, ливневой дождь 10/9 600 м
[Cb cap As op]
+22.6 +20.9 90 +30 +30 очень
душно
1010.0 904.5 +26.8 0.6
штиль 0 5000 м в посл. час гроза {дождь} 10/8 600 м
[Cb cap As op]
+21.2 +20.3 95 +26 +26 душно 1011.8 906.2 2
штиль 0 6000 м {гроза, дождь} 9/6 600 м
[Sc Ac As Ci fib]
+20.2 +19.0 93 +24 +24 комфорт 1009.8 904.4 2
штиль 0 6000 м 9/8 600 м
[Sc Ac As Ci fib]
+20.2 +18.4 89 +23 +23 комфорт 1009.5 904.1
штиль 0 8000 м 9/3 600 м
[Sc Ac As Ci fib]
+20.6 +19.4 93 +25 +26 комфорт 1011.1 905.5 +20.2 2
З 1 8000 м 9/6 600 м
[Cu med, cong As trans Ci fib]
+24.2 +21.4 84 +31 +35 очень
душно
1011.5 905.9
СВ 3 7000 м осадки на расстоянии 9/8 600 м
[Cu med, cong As trans Ci fib]
+25.0 +22.2 84 +32 +35 очень
душно
1009.1 903.7
З 3 6000 м осадки на расстоянии 10/9 600 м
[Cu med, cong As trans]
+23.8 +21.5 87 +30 +31 очень
душно
1008.2 902.9
З 3 100 м в посл. час гроза {туман} ?/? +21.6 +20.7 95 +27 +27 душно 1010.0 905.1 +25.0
штиль 0 4000 м мгла {дождь} 10/9 600 м
[Cu med, cong As op]
+21.4 +20.5 95 +27 +27 душно 1011.3 905.7 2
Местоположение метеостанции Цитеко (Индонезия): широта -6.70 долгота 106.93 высота над уровнем моря 300 м.
В архиве по умолчанию представлена погода в Цитеко за последнюю неделю. Архивные данные за месяц целиком и за предыдущие месяцы, начиная с января 2011 года, Вы можете получить, выбрав интересующий диапазон дат из раскрывающегося списка и нажав кнопку "Найти!".
*Определитесь, кто Вы:
Внимание! Время в таблицах - всемирное. Для получения местного времени необходимо прибавить поправку, которая равна 7 ч.
Смотрите также архив погоды в соседних городах и на ближайших метеорологических станциях:
Партнеры нашего сайта:      
Пояснения к столбцам:
  • Ветер - указаны скорость ветра в м/с - средняя за 10 мин, порывы в срок и между сроками (в фигурных скобках) и направление, откуда дует ветер: С - северный,
  • СВ - северо-восточный, В - восточный, ЮВ - юго-восточный, Ю - южный, ЮЗ - юго-западный, З - западный, СЗ - северо-западный.
  • Видимость - горизонтальная дальность видимости в метрах или километрах. При видимости от 1 до 10 км при отсутствии осадков обычно наблюдается дымка, при ухудшении видимости до 1 км и менее - туман. В сухую погоду видимость может ухудшаться дымом, пылью или мглою.
  • Явления - указаны атмосферные явления, наблюдавшиеся в срок или в последний час перед сроком; фигурными скобками обозначены явления, наблюдавшиеся между сроками (за 1-3 часа до срока); квадратными скобками обозначены град или гололедные отложения с указанием их диаметра в мм.
  • Облачность - указаны через наклонную черту общая и нижняя облачность в баллах и высота нижней границы облаков в метрах; квадратными скобками обозначены формы облаков: Ci - перистые, Cs - перисто-слоистые, Cc - перисто-кучевые, Ac - высококучевые, As - высокослоистые, Sc - слоисто-кучевые, Ns - слоисто-дождевые, Cu - кучевые, Cb - кучево-дождевые. Подробнее классификацию облаков см. в Атласе облаков (PDF).
  • T - Температура воздуха - температура, измеренная на высоте 2 м над землей.
  • Td - Температура точки росы - температура, при понижении до которой содержащийся в воздухе водяной пар достигнет насыщения.
  • f - Относительная влажность воздуха - влажноcть воздуха, измеренная на высоте 2 м над землей.
  • Te - Эффективная температура - температура, которую ощущает одетый по сезону человек в тени. Характеристика душности погоды. При расчете учитывается влияние влажности воздуха и скорости ветра на теплоощущения человека.
  • Tes - Эффективная температура на солнце - температура, которую ощущает человек, с поправкой на солнечный нагрев. Характеристика знойности погоды. Зависит от высоты солнца над горизонтом, облачности и скорости ветра. Ночью, в пасмурную погоду, а также при ветре 12 м/с и более поправка равна нулю.
  • P - Атмосферное давление - приведенное к уровню моря атмосферное давление.
  • Po - Атмосферное давление - измеренное на уровне метеостанции атмосферное давление.
  • Tmin - Минимальная температура - минимум температуры воздуха на высоте 2 м над землей.
  • Tmax - Максимальная температура - максимум температуры воздуха на высоте 2 м над землей.
  • R - Количество осадков - Количество выпавших осадков за период времени, мм. При наведении курсора мыши на число - период времени, за который выпало указанное количество осадков.
  • R24 - Количество осадков - Количество выпавших осадков за 24 часа, мм.
  • S - Снежный покров - Высота снежного покрова, см. При наведении курсора мыши на число - состояние снежного покрова и степень покрытия местности в баллах.